| time (UTC) | temp F | wind direction | speed knots | gust knots | rain 1hr in | rain 24hr in | rain mn in | humidity % | barometer mb |
| 20260510121004 | 44 | 288 | 5.2 | 7.0 | 0.00 | 0.00 | 0.00 | 62 | 1016.8 |
| 20260510120004 | 45 | 279 | 5.2 | 7.0 | 0.00 | 0.00 | 0.00 | 58 | 1016.8 |
| 20260510115505 | 45 | 256 | 6.1 | 7.0 | 0.00 | 0.00 | 0.00 | 58 | 1016.8 |
| 20260510115005 | 46 | 269 | 5.2 | 7.8 | 0.00 | 0.00 | 0.00 | 60 | 1016.7 |
| 20260510114505 | 46 | 276 | 5.2 | 7.8 | 0.00 | 0.00 | 0.00 | 60 | 1016.8 |
| 20260510114004 | 46 | 270 | 6.1 | 7.8 | 0.00 | 0.00 | 0.00 | 61 | 1016.8 |
| 20260510113504 | 45 | 269 | 6.1 | 7.8 | 0.00 | 0.00 | 0.00 | 60 | 1016.8 |
| 20260510112005 | 46 | 248 | 7.0 | 8.7 | 0.00 | 0.00 | 0.00 | 56 | 1016.7 |
| 20260510111504 | 46 | 260 | 7.0 | 8.7 | 0.00 | 0.00 | 0.00 | 55 | 1016.7 |
| 20260510111005 | 46 | 247 | 7.0 | 8.7 | 0.00 | 0.00 | 0.00 | 55 | 1016.7 |
| 20260510110005 | 46 | 231 | 4.3 | 7.0 | 0.00 | 0.00 | 0.00 | 55 | 1016.7 |
| 20260510105504 | 46 | 236 | 5.2 | 7.0 | 0.00 | 0.00 | 0.00 | 55 | 1016.7 |
| 20260510105004 | 47 | 232 | 4.3 | 6.1 | 0.00 | 0.00 | 0.00 | 54 | 1016.6 |
| 20260510104504 | 47 | 235 | 5.2 | 6.1 | 0.00 | 0.00 | 0.00 | 54 | 1016.7 |
| 20260510103504 | 47 | 233 | 5.2 | 7.8 | 0.00 | 0.00 | 0.00 | 53 | 1016.8 |
| 20260510103004 | 47 | 233 | 5.2 | 7.8 | 0.00 | 0.00 | 0.00 | 53 | 1016.8 |
| 20260510102505 | 48 | 235 | 5.2 | 7.8 | 0.00 | 0.00 | 0.00 | 53 | 1016.8 |
| 20260510102004 | 48 | 230 | 5.2 | 7.8 | 0.00 | 0.00 | 0.00 | 53 | 1016.8 |
| 20260510101005 | 47 | 234 | 6.1 | 7.0 | 0.00 | 0.00 | 0.00 | 54 | 1016.7 |
| 20260510100005 | 47 | 238 | 4.3 | 6.1 | 0.00 | 0.00 | 0.00 | 54 | 1016.8 |
| 20260510095504 | 47 | 234 | 4.3 | 7.8 | 0.00 | 0.00 | 0.00 | 54 | 1016.8 |
| 20260510094504 | 47 | 232 | 5.2 | 8.7 | 0.00 | 0.00 | 0.00 | 54 | 1016.7 |
| 20260510093504 | 47 | 235 | 6.1 | 10.4 | 0.00 | 0.00 | 0.00 | 54 | 1016.6 |
| 20260510092504 | 47 | 232 | 6.1 | 8.7 | 0.00 | 0.00 | 0.00 | 55 | 1016.6 |
| 20260510092004 | 47 | 231 | 6.1 | 10.4 | 0.00 | 0.00 | 0.00 | 55 | 1016.5 |
| 20260510091504 | 47 | 235 | 7.0 | 10.4 | 0.00 | 0.00 | 0.00 | 55 | 1016.5 |
| 20260510091004 | 47 | 234 | 7.0 | 10.4 | 0.00 | 0.00 | 0.00 | 54 | 1016.5 |
| 20260510085504 | 47 | 233 | 7.0 | 10.4 | 0.00 | 0.00 | 0.00 | 54 | 1016.4 |
| 20260510085005 | 47 | 233 | 7.8 | 10.4 | 0.00 | 0.00 | 0.00 | 54 | 1016.4 |
| 20260510084504 | 47 | 233 | 7.0 | 10.4 | 0.00 | 0.00 | 0.00 | 55 | 1016.4 |
| 20260510084004 | 47 | 232 | 7.8 | 10.4 | 0.00 | 0.00 | 0.00 | 55 | 1016.3 |
| 20260510083505 | 46 | 232 | 7.0 | 10.4 | 0.00 | 0.00 | 0.00 | 57 | 1016.4 |
| 20260510082505 | 46 | 234 | 6.1 | 7.8 | 0.00 | 0.00 | 0.00 | 58 | 1016.4 |
| 20260510082004 | 46 | 231 | 6.1 | 7.8 | 0.00 | 0.00 | 0.00 | 59 | 1016.3 |
| 20260510081504 | 45 | 234 | 5.2 | 7.8 | 0.00 | 0.00 | 0.00 | 59 | 1016.3 |
| 20260510081005 | 46 | 233 | 5.2 | 7.8 | 0.00 | 0.00 | 0.00 | 59 | 1016.4 |
| 20260510080004 | 45 | 243 | 7.0 | 10.4 | 0.00 | 0.00 | 0.00 | 60 | 1016.3 |
| 20260510075505 | 45 | 246 | 7.8 | 10.4 | 0.00 | 0.00 | 0.00 | 60 | 1016.3 |
| 20260510075004 | 45 | 240 | 4.3 | 7.0 | 0.00 | 0.00 | 0.00 | 60 | 1016.2 |
| 20260510073504 | 45 | 251 | 5.2 | 7.8 | 0.00 | 0.00 | 0.00 | 62 | 1016.2 |
| 20260510073005 | 46 | 251 | 5.2 | 7.8 | 0.00 | 0.00 | 0.00 | 61 | 1016.1 |
| 20260510072505 | 46 | 237 | 4.3 | 7.0 | 0.00 | 0.00 | 0.00 | 59 | 1016.1 |
| 20260510072004 | 46 | 231 | 5.2 | 7.0 | 0.00 | 0.00 | 0.00 | 59 | 1016.1 |
| 20260510071504 | 46 | 232 | 5.2 | 7.0 | 0.00 | 0.00 | 0.00 | 60 | 1016.1 |
| 20260510071004 | 46 | 235 | 5.2 | 6.1 | 0.00 | 0.00 | 0.00 | 61 | 1016.1 |
| 20260510070004 | 46 | 240 | 4.3 | 7.0 | 0.00 | 0.00 | 0.00 | 60 | 1016.1 |
| 20260510065504 | 46 | 227 | 4.3 | 5.2 | 0.00 | 0.00 | 0.00 | 61 | 1016.1 |
| 20260510065004 | 45 | 209 | 4.3 | 5.2 | 0.00 | 0.00 | 0.00 | 63 | 1016.1 |
| 20260510064504 | 45 | 204 | 3.5 | 6.1 | 0.00 | 0.00 | 0.00 | 63 | 1016.1 |
| 20260510064004 | 45 | 203 | 4.3 | 7.0 | 0.00 | 0.00 | 0.00 | 64 | 1016.1 |
| 20260510063504 | 45 | 202 | 3.5 | 7.0 | 0.00 | 0.00 | 0.00 | 64 | 1016.0 |
| 20260510063005 | 45 | 199 | 5.2 | 7.0 | 0.00 | 0.00 | 0.00 | 64 | 1016.0 |
| 20260510062505 | 45 | 195 | 6.1 | 6.1 | 0.00 | 0.00 | 0.00 | 64 | 1015.9 |
| 20260510062005 | 45 | 194 | 5.2 | 6.1 | 0.00 | 0.00 | 0.00 | 64 | 1016.0 |
| 20260510061504 | 45 | 197 | 4.3 | 5.2 | 0.00 | 0.00 | 0.00 | 64 | 1016.0 |
| 20260510061004 | 46 | 189 | 3.5 | 6.1 | 0.00 | 0.00 | 0.00 | 64 | 1016.0 |
| 20260510060005 | 46 | 194 | 5.2 | 6.1 | 0.00 | 0.00 | 0.00 | 64 | 1015.9 |
| 20260510055504 | 46 | 199 | 5.2 | 6.1 | 0.00 | 0.00 | 0.00 | 64 | 1015.9 |
| 20260510055005 | 47 | 201 | 4.3 | 5.2 | 0.00 | 0.00 | 0.00 | 65 | 1015.9 |
| 20260510054005 | 48 | 178 | 5.2 | 5.2 | 0.00 | 0.00 | 0.00 | 65 | 1015.6 |
| 20260510053504 | 49 | 150 | 4.3 | 4.3 | 0.00 | 0.00 | 0.00 | 65 | 1015.5 |
| 20260510053005 | 49 | 145 | 2.6 | 4.3 | 0.00 | 0.00 | 0.00 | 65 | 1015.5 |
| 20260510052505 | 49 | 139 | 2.6 | 4.3 | 0.00 | 0.00 | 0.00 | 64 | 1015.4 |
| 20260510051504 | 49 | 139 | 4.3 | 4.3 | 0.00 | 0.00 | 0.00 | 66 | 1015.4 |
| 20260510051005 | 48 | 139 | 2.6 | 7.0 | 0.00 | 0.00 | 0.00 | 67 | 1015.5 |
| 20260510050004 | 47 | 141 | 5.2 | 7.0 | 0.00 | 0.00 | 0.00 | 69 | 1015.4 |
| 20260510045504 | 47 | 139 | 5.2 | 7.8 | 0.00 | 0.00 | 0.00 | 67 | 1015.4 |
| 20260510045005 | 48 | 128 | 6.1 | 7.8 | 0.00 | 0.00 | 0.00 | 66 | 1015.4 |
| 20260510044005 | 49 | 116 | 6.1 | 6.1 | 0.00 | 0.00 | 0.00 | 66 | 1015.5 |
| 20260510043505 | 49 | 115 | 6.1 | 6.1 | 0.00 | 0.00 | 0.00 | 66 | 1015.5 |
| 20260510043005 | 49 | 114 | 6.1 | 6.1 | 0.00 | 0.00 | 0.00 | 66 | 1015.5 |
| 20260510042005 | 49 | 108 | 6.1 | 6.1 | 0.00 | 0.00 | 0.00 | 66 | 1015.5 |
| 20260510041504 | 49 | 108 | 5.2 | 6.1 | 0.00 | 0.00 | 0.00 | 66 | 1015.4 |
| 20260510041005 | 49 | 108 | 5.2 | 6.1 | 0.00 | 0.00 | 0.00 | 66 | 1015.3 |
| 20260510040004 | 49 | 113 | 5.2 | 7.0 | 0.00 | 0.00 | 0.00 | 65 | 1015.2 |
| 20260510035004 | 50 | 120 | 6.1 | 7.8 | 0.00 | 0.00 | 0.00 | 64 | 1015.0 |
| 20260510034504 | 50 | 124 | 6.1 | 7.8 | 0.00 | 0.00 | 0.00 | 64 | 1014.9 |
| 20260510034005 | 50 | 129 | 7.0 | 8.7 | 0.00 | 0.00 | 0.00 | 63 | 1014.9 |
| 20260510033505 | 50 | 132 | 7.8 | 8.7 | 0.00 | 0.00 | 0.00 | 63 | 1014.7 |
| 20260510033004 | 51 | 131 | 7.8 | 8.7 | 0.00 | 0.00 | 0.00 | 62 | 1014.7 |
| 20260510032504 | 51 | 129 | 7.0 | 7.8 | 0.00 | 0.00 | 0.00 | 61 | 1014.7 |
| 20260510032004 | 52 | 126 | 7.0 | 7.8 | 0.00 | 0.00 | 0.00 | 60 | 1014.7 |
| 20260510031504 | 53 | 125 | 6.1 | 7.8 | 0.00 | 0.00 | 0.00 | 59 | 1014.6 |
| 20260510031004 | 53 | 121 | 7.0 | 7.8 | 0.00 | 0.00 | 0.00 | 58 | 1014.5 |
| 20260510030004 | 54 | 127 | 7.0 | 8.7 | 0.00 | 0.00 | 0.00 | 57 | 1014.4 |
| 20260510025504 | 55 | 127 | 7.0 | 8.7 | 0.00 | 0.00 | 0.00 | 56 | 1014.3 |
| 20260510025005 | 55 | 124 | 7.0 | 8.7 | 0.00 | 0.00 | 0.00 | 55 | 1014.3 |
| 20260510024504 | 55 | 119 | 7.0 | 7.8 | 0.00 | 0.00 | 0.00 | 54 | 1014.3 |
| 20260510023504 | 56 | 107 | 6.1 | 8.7 | 0.00 | 0.00 | 0.00 | 52 | 1014.2 |
| 20260510023004 | 57 | 102 | 6.1 | 8.7 | 0.00 | 0.00 | 0.00 | 51 | 1014.1 |
| 20260510022504 | 57 | 97 | 6.1 | 8.7 | 0.00 | 0.00 | 0.00 | 50 | 1014.0 |
| 20260510021505 | 57 | 85 | 6.1 | 10.4 | 0.00 | 0.00 | 0.00 | 49 | 1013.9 |
| 20260510021004 | 58 | 85 | 7.0 | 10.4 | 0.00 | 0.00 | 0.00 | 49 | 1013.8 |
| 20260510020004 | 58 | 77 | 7.0 | 10.4 | 0.00 | 0.00 | 0.00 | 47 | 1013.8 |
| 20260510015504 | 58 | 75 | 5.2 | 8.7 | 0.00 | 0.00 | 0.00 | 46 | 1013.9 |
| 20260510015004 | 59 | 57 | 5.2 | 8.7 | 0.00 | 0.00 | 0.00 | 44 | 1013.9 |
| 20260510014504 | 59 | 60 | 4.3 | 8.7 | 0.00 | 0.00 | 0.00 | 42 | 1013.8 |
| 20260510014004 | 59 | 24 | 4.3 | 8.7 | 0.00 | 0.00 | 0.00 | 40 | 1013.8 |
| 20260510013504 | 60 | 18 | 2.6 | 5.2 | 0.00 | 0.00 | 0.00 | 38 | 1013.7 |
| 20260510013004 | 60 | 28 | 2.6 | 7.8 | 0.00 | 0.00 | 0.00 | 38 | 1013.6 |
| 20260510012505 | 60 | 31 | 4.3 | 7.8 | 0.00 | 0.00 | 0.00 | 37 | 1013.4 |
| 20260510012005 | 60 | 24 | 3.5 | 10.4 | 0.00 | 0.00 | 0.00 | 36 | 1013.3 |
| 20260510011504 | 60 | 26 | 5.2 | 10.4 | 0.00 | 0.00 | 0.00 | 36 | 1013.2 |
| 20260510011004 | 61 | 340 | 6.1 | 8.7 | 0.00 | 0.00 | 0.00 | 35 | 1013.2 |
| 20260510010005 | 61 | 291 | 5.2 | 8.7 | 0.00 | 0.00 | 0.00 | 33 | 1013.2 |
| 20260510005504 | 61 | 289 | 5.2 | 7.8 | 0.00 | 0.00 | 0.00 | 32 | 1013.2 |
| 20260510005004 | 61 | 285 | 4.3 | 10.4 | 0.00 | 0.00 | 0.00 | 33 | 1013.2 |
| 20260510004504 | 62 | 302 | 6.1 | 10.4 | 0.00 | 0.00 | 0.00 | 31 | 1013.3 |
| 20260510004004 | 62 | 294 | 7.0 | 10.4 | 0.00 | 0.00 | 0.00 | 31 | 1013.2 |
| 20260510003504 | 63 | 304 | 3.5 | 8.7 | 0.00 | 0.00 | 0.00 | 31 | 1013.2 |
| 20260510002504 | 64 | 312 | 6.1 | 10.4 | 0.00 | 0.00 | 0.00 | 32 | 1013.0 |
| 20260510002004 | 64 | 246 | 6.1 | 10.4 | 0.00 | 0.00 | 0.00 | 30 | 1013.0 |
| 20260510001004 | 63 | 317 | 2.6 | 11.3 | 0.00 | 0.00 | 0.00 | 31 | 1013.0 |
| 20260510000004 | 63 | 252 | 7.8 | 13.0 | 0.00 | 0.00 | 0.00 | 32 | 1013.0 |
| 20260509235504 | 63 | 284 | 6.1 | 11.3 | 0.00 | 0.00 | 0.00 | 31 | 1013.0 |
| 20260509235004 | 63 | 271 | 6.1 | 10.4 | 0.00 | 0.00 | 0.00 | 32 | 1013.0 |
| 20260509234504 | 63 | 302 | 6.1 | 10.4 | 0.00 | 0.00 | 0.00 | 33 | 1013.0 |
| 20260509234005 | 62 | 296 | 5.2 | 10.4 | 0.00 | 0.00 | 0.00 | 33 | 1013.0 |
| 20260509233505 | 62 | 313 | 4.3 | 10.4 | 0.00 | 0.00 | 0.00 | 32 | 1013.1 |
| 20260509233005 | 62 | 294 | 6.1 | 10.4 | 0.00 | 0.00 | 0.00 | 34 | 1013.1 |
| 20260509231505 | 62 | 297 | 6.1 | 10.4 | 0.00 | 0.00 | 0.00 | 33 | 1013.0 |
| 20260509231005 | 62 | 304 | 5.2 | 10.4 | 0.00 | 0.00 | 0.00 | 33 | 1013.1 |
| 20260509230005 | 61 | 280 | 5.2 | 10.4 | 0.00 | 0.00 | 0.00 | 33 | 1013.0 |
| 20260509225505 | 61 | 247 | 7.0 | 12.2 | 0.00 | 0.00 | 0.00 | 33 | 1013.0 |
| 20260509224505 | 61 | 273 | 7.8 | 12.2 | 0.00 | 0.00 | 0.00 | 34 | 1013.1 |
| 20260509223505 | 62 | 302 | 7.0 | 12.2 | 0.00 | 0.00 | 0.00 | 33 | 1013.1 |
| 20260509223006 | 62 | 299 | 7.8 | 12.2 | 0.00 | 0.00 | 0.00 | 33 | 1013.1 |
| 20260509222505 | 61 | 322 | 6.1 | 12.2 | 0.00 | 0.00 | 0.00 | 35 | 1013.1 |
| 20260509222005 | 61 | 316 | 5.2 | 11.3 | 0.00 | 0.00 | 0.00 | 35 | 1013.1 |
| 20260509221006 | 63 | 321 | 8.7 | 15.6 | 0.00 | 0.00 | 0.00 | 34 | 1013.1 |
| 20260509215505 | 63 | 269 | 8.7 | 20.0 | 0.00 | 0.00 | 0.00 | 32 | 1012.8 |
| 20260509215005 | 63 | 304 | 12.2 | 20.0 | 0.00 | 0.00 | 0.00 | 31 | 1012.8 |
| 20260509214505 | 63 | 307 | 10.4 | 17.4 | 0.00 | 0.00 | 0.00 | 30 | 1012.8 |
| 20260509214005 | 63 | 290 | 13.0 | 17.4 | 0.00 | 0.00 | 0.00 | 33 | 1012.7 |
| 20260509213006 | 62 | 292 | 13.9 | 19.1 | 0.00 | 0.00 | 0.00 | 32 | 1012.7 |
| 20260509212505 | 63 | 291 | 11.3 | 17.4 | 0.00 | 0.00 | 0.00 | 32 | 1012.7 |
| 20260509212005 | 62 | 287 | 11.3 | 21.7 | 0.00 | 0.00 | 0.00 | 32 | 1012.7 |
| 20260509211005 | 61 | 297 | 8.7 | 17.4 | 0.00 | 0.00 | 0.00 | 34 | 1012.7 |
| 20260509210005 | 60 | 273 | 11.3 | 17.4 | 0.00 | 0.00 | 0.00 | 34 | 1012.6 |
| 20260509205005 | 61 | 302 | 10.4 | 14.8 | 0.00 | 0.00 | 0.00 | 33 | 1012.6 |
| 20260509204505 | 61 | 310 | 9.6 | 17.4 | 0.00 | 0.00 | 0.00 | 33 | 1012.6 |
| 20260509204005 | 61 | 273 | 9.6 | 17.4 | 0.00 | 0.00 | 0.00 | 34 | 1012.6 |
| 20260509203505 | 61 | 282 | 11.3 | 20.9 | 0.00 | 0.00 | 0.00 | 33 | 1012.7 |
| 20260509203005 | 60 | 296 | 10.4 | 20.9 | 0.00 | 0.00 | 0.00 | 35 | 1012.7 |
| 20260509202505 | 61 | 283 | 11.3 | 18.2 | 0.00 | 0.00 | 0.00 | 34 | 1012.7 |
| 20260509201505 | 60 | 299 | 10.4 | 15.6 | 0.00 | 0.00 | 0.00 | 35 | 1012.6 |
| 20260509201005 | 60 | 291 | 8.7 | 15.6 | 0.00 | 0.00 | 0.00 | 33 | 1012.7 |
| 20260509200005 | 61 | 304 | 10.4 | 14.8 | 0.00 | 0.00 | 0.00 | 35 | 1012.5 |
| 20260509195505 | 60 | 305 | 10.4 | 14.8 | 0.00 | 0.00 | 0.00 | 36 | 1012.5 |
| 20260509195005 | 60 | 314 | 10.4 | 17.4 | 0.00 | 0.00 | 0.00 | 35 | 1012.5 |
| 20260509194505 | 59 | 311 | 7.8 | 19.1 | 0.00 | 0.00 | 0.00 | 37 | 1012.5 |
| 20260509194005 | 59 | 320 | 9.6 | 19.1 | 0.00 | 0.00 | 0.00 | 37 | 1012.6 |
| 20260509193505 | 59 | 315 | 11.3 | 17.4 | 0.00 | 0.00 | 0.00 | 36 | 1012.5 |
| 20260509193005 | 59 | 312 | 10.4 | 15.6 | 0.00 | 0.00 | 0.00 | 36 | 1012.4 |
| 20260509192505 | 59 | 305 | 11.3 | 15.6 | 0.00 | 0.00 | 0.00 | 36 | 1012.4 |
| 20260509192005 | 59 | 310 | 13.0 | 15.6 | 0.00 | 0.00 | 0.00 | 36 | 1012.3 |
| 20260509191505 | 59 | 290 | 9.6 | 19.1 | 0.00 | 0.00 | 0.00 | 36 | 1012.3 |
| 20260509190006 | 60 | 285 | 13.0 | 18.2 | 0.00 | 0.00 | 0.00 | 34 | 1012.2 |
| 20260509185505 | 60 | 309 | 9.6 | 17.4 | 0.00 | 0.00 | 0.00 | 33 | 1012.1 |
| 20260509185005 | 61 | 281 | 12.2 | 18.2 | 0.00 | 0.00 | 0.00 | 34 | 1012.1 |
| 20260509184505 | 60 | 275 | 13.9 | 20.9 | 0.00 | 0.00 | 0.00 | 31 | 1012.0 |
| 20260509183505 | 60 | 286 | 17.4 | 20.9 | 0.00 | 0.00 | 0.00 | 31 | 1012.0 |
| 20260509183006 | 61 | 281 | 13.9 | 20.9 | 0.00 | 0.00 | 0.00 | 33 | 1011.9 |
| 20260509182504 | 60 | 285 | 11.3 | 21.7 | 0.00 | 0.00 | 0.00 | 34 | 1011.9 |
| 20260509182005 | 60 | 277 | 15.6 | 22.6 | 0.00 | 0.00 | 0.00 | 34 | 1011.9 |
| 20260509181505 | 60 | 278 | 12.2 | 22.6 | 0.00 | 0.00 | 0.00 | 35 | 1011.9 |
| 20260509181006 | 60 | 298 | 11.3 | 22.6 | 0.00 | 0.00 | 0.00 | 33 | 1011.9 |
| 20260509175505 | 59 | 286 | 9.6 | 22.6 | 0.00 | 0.00 | 0.00 | 33 | 1011.9 |
| 20260509175005 | 60 | 275 | 14.8 | 22.6 | 0.00 | 0.00 | 0.00 | 32 | 1012.1 |
| 20260509174505 | 59 | 292 | 10.4 | 20.9 | 0.00 | 0.00 | 0.00 | 35 | 1012.0 |
| 20260509174005 | 59 | 287 | 13.9 | 20.9 | 0.00 | 0.00 | 0.00 | 33 | 1012.0 |
| 20260509173505 | 59 | 289 | 13.9 | 17.4 | 0.00 | 0.00 | 0.00 | 34 | 1012.0 |
| 20260509173005 | 59 | 265 | 10.4 | 17.4 | 0.00 | 0.00 | 0.00 | 33 | 1012.0 |
| 20260509172005 | 58 | 310 | 10.4 | 17.4 | 0.00 | 0.00 | 0.00 | 36 | 1011.9 |
| 20260509171505 | 58 | 295 | 12.2 | 17.4 | 0.00 | 0.00 | 0.00 | 36 | 1012.0 |
| 20260509171005 | 58 | 285 | 11.3 | 17.4 | 0.00 | 0.00 | 0.00 | 35 | 1012.0 |
| 20260509170005 | 57 | 282 | 10.4 | 17.4 | 0.00 | 0.00 | 0.00 | 36 | 1012.0 |
| 20260509165505 | 58 | 287 | 11.3 | 17.4 | 0.00 | 0.00 | 0.00 | 35 | 1012.1 |
| 20260509164505 | 57 | 272 | 9.6 | 18.2 | 0.00 | 0.00 | 0.00 | 36 | 1012.0 |
| 20260509164005 | 57 | 270 | 11.3 | 18.2 | 0.00 | 0.00 | 0.00 | 35 | 1012.1 |
| 20260509163505 | 57 | 282 | 11.3 | 19.1 | 0.00 | 0.00 | 0.00 | 36 | 1012.1 |
| 20260509163005 | 57 | 277 | 11.3 | 19.1 | 0.00 | 0.00 | 0.00 | 37 | 1012.1 |
| 20260509162505 | 57 | 257 | 12.2 | 19.1 | 0.00 | 0.00 | 0.00 | 36 | 1011.9 |
| 20260509161505 | 56 | 292 | 10.4 | 17.4 | 0.00 | 0.00 | 0.00 | 38 | 1012.0 |
| 20260509161005 | 56 | 286 | 11.3 | 20.9 | 0.00 | 0.00 | 0.00 | 37 | 1012.0 |
| 20260509160005 | 56 | 274 | 13.9 | 20.9 | 0.00 | 0.00 | 0.00 | 37 | 1011.9 |
| 20260509155005 | 55 | 279 | 13.0 | 20.9 | 0.00 | 0.00 | 0.00 | 38 | 1011.8 |
| 20260509154504 | 55 | 291 | 13.0 | 20.9 | 0.00 | 0.00 | 0.00 | 37 | 1011.7 |
| 20260509154005 | 55 | 293 | 14.8 | 22.6 | 0.00 | 0.00 | 0.00 | 38 | 1011.7 |
| 20260509153005 | 55 | 287 | 17.4 | 26.1 | 0.00 | 0.00 | 0.00 | 38 | 1011.8 |
| 20260509152504 | 55 | 279 | 17.4 | 26.1 | 0.00 | 0.00 | 0.00 | 39 | 1011.7 |
| 20260509152005 | 54 | 263 | 17.4 | 22.6 | 0.00 | 0.00 | 0.00 | 39 | 1011.6 |
| 20260509151504 | 54 | 273 | 17.4 | 22.6 | 0.00 | 0.00 | 0.00 | 39 | 1011.5 |
| 20260509151005 | 54 | 269 | 14.8 | 24.3 | 0.00 | 0.00 | 0.00 | 39 | 1011.6 |
| 20260509150004 | 53 | 260 | 17.4 | 26.1 | 0.00 | 0.00 | 0.00 | 38 | 1011.4 |
| 20260509145505 | 53 | 255 | 18.2 | 26.1 | 0.00 | 0.00 | 0.00 | 38 | 1011.4 |
| 20260509144505 | 53 | 258 | 15.6 | 22.6 | 0.00 | 0.00 | 0.00 | 39 | 1011.3 |
| 20260509144005 | 53 | 252 | 12.2 | 21.7 | 0.00 | 0.00 | 0.00 | 39 | 1011.4 |
| 20260509143504 | 53 | 272 | 13.9 | 20.0 | 0.00 | 0.00 | 0.00 | 38 | 1011.5 |
| 20260509143005 | 53 | 269 | 13.9 | 17.4 | 0.00 | 0.00 | 0.00 | 38 | 1011.5 |
| 20260509142504 | 52 | 276 | 11.3 | 19.1 | 0.00 | 0.00 | 0.00 | 39 | 1011.4 |
| 20260509142005 | 52 | 272 | 12.2 | 19.1 | 0.00 | 0.00 | 0.00 | 38 | 1011.4 |
| 20260509141504 | 52 | 257 | 12.2 | 17.4 | 0.00 | 0.00 | 0.00 | 39 | 1011.3 |
| 20260509141005 | 52 | 263 | 11.3 | 17.4 | 0.00 | 0.00 | 0.00 | 39 | 1011.2 |
| 20260509140006 | 51 | 265 | 13.9 | 17.4 | 0.00 | 0.00 | 0.00 | 40 | 1011.2 |
| 20260509135005 | 51 | 263 | 11.3 | 21.7 | 0.00 | 0.00 | 0.00 | 39 | 1011.1 |
| 20260509134504 | 51 | 277 | 12.2 | 22.6 | 0.00 | 0.00 | 0.00 | 38 | 1011.1 |
| 20260509134004 | 51 | 264 | 15.6 | 22.6 | 0.00 | 0.00 | 0.00 | 38 | 1010.9 |
| 20260509133505 | 51 | 255 | 13.0 | 20.9 | 0.00 | 0.00 | 0.00 | 38 | 1010.9 |
| 20260509133005 | 51 | 251 | 14.8 | 20.9 | 0.00 | 0.00 | 0.00 | 37 | 1010.7 |
| 20260509132505 | 51 | 262 | 14.8 | 21.7 | 0.00 | 0.00 | 0.00 | 38 | 1010.7 |
| 20260509132005 | 50 | 256 | 13.0 | 21.7 | 0.00 | 0.00 | 0.00 | 38 | 1010.7 |
| 20260509131504 | 50 | 251 | 14.8 | 21.7 | 0.00 | 0.00 | 0.00 | 37 | 1010.6 |
| 20260509131005 | 50 | 252 | 12.2 | 19.1 | 0.00 | 0.00 | 0.00 | 39 | 1010.6 |
| 20260509130005 | 49 | 247 | 10.4 | 15.6 | 0.00 | 0.00 | 0.00 | 39 | 1010.7 |
| 20260509125505 | 49 | 246 | 11.3 | 15.6 | 0.00 | 0.00 | 0.00 | 40 | 1010.7 |
| 20260509125005 | 48 | 255 | 10.4 | 15.6 | 0.00 | 0.00 | 0.00 | 40 | 1010.7 |
| 20260509124505 | 48 | 250 | 10.4 | 13.9 | 0.00 | 0.00 | 0.00 | 41 | 1010.7 |
| 20260509124005 | 48 | 250 | 10.4 | 13.0 | 0.00 | 0.00 | 0.00 | 41 | 1010.7 |
| 20260509123504 | 48 | 251 | 8.7 | 13.0 | 0.00 | 0.00 | 0.00 | 42 | 1010.6 |
| 20260509122504 | 48 | 245 | 8.7 | 13.9 | 0.00 | 0.00 | 0.00 | 42 | 1010.5 |